STARLINK-1647, 47978

Orbit data source: Space-Track

STARLINK-1647, 47978 is a payload satellite owned by SpaceX/Seattle (US) in LEO that was launched on Wed, 24 Mar 2021 UTC via an FALCON 9 launch vehicle from the Air Force Eastern Test Range (AFETR). Payload-class satellites include a variety of spacecraft equipped with specific instruments for various scientific and technological missions. These include communications satellites like Starlink; space stations such as the ISS; scientific satellites like the Hubble; Earth observation satellites from companies like Planet Labs, Umbra, and HawkEye 360; GPS; miniature CubeSats for education and research; and military/defense satellites.

Loading next visibility...
Identifier
47978, 2021-024B
Orbit
LEO
Country
Flag of USUS
Related business
Manufacturer
SpaceX/Seattle
Mission
Operational Commercial Communications
Bus & Motor
STARLINK, Unknown motor
Mass
260 kg wet, ~248 kg dry
Launch date (UTC)
2021-03-24 (5 years ago)
Launch vehicle
FALCON 9
Launch site
Air Force Eastern Test Range (AFETR)
Object type
Payload
Rocket body
Debris
Shape & HBR
Box + 1 Pan, 10.1 m
Radar Cross Section
13.562 m², Large (>1 m²)

Expand to show TLE details & history
Last TLE update: 1 day ago

TLE from 1 day ago
0 STARLINK-1647
1 47978U 21024B   25348.32108284  .00001276  00000-0  10452-3 0  9995
2 47978  53.0563 359.8554 0001666  89.5907 270.5273 15.06400725261695
Epoch: 2025-12-14T07:42Z
TLE epoch observation values (Epoch: 2025-12-14T07:42:21.557Z)
Latitude
-0.00001°
Longitude
161.02989°
Altitude
548.078 km
Speed
7.589 km/s
True Right ascension
23h 59m 25s
True Declination
0° 00' 00"
Sunlit
Object was in daylight at epoch
Visualization orbit readout
Latitude
Unknown
Longitude
Unknown
Altitude
Unknown
Speed
Unknown
Apparent Right ascension
Unknown
Apparent Declination
Unknown
Sunlit
N/A
Visualization observer readout
Local Sidereal Time
17:16:31
Azimuth
Unknown
Elevation
Unknown
Doppler factor
Unknown
Orbital elements
Apogee altitude
548.634 km
Perigee altitude
546.326 km
Semi-major axis
6,925.617 km
Eccentricity
0.00017
Inclination
53.0563°
RAAN
359.8554°
Arg. of periapsis
89.5907°
True anomaly
270.50821°
Mean anomaly
270.5273°
Eccentric anomaly
270.51775°
Mean motion
3.76578 °/min
Orbital period
95.6 mins
BSTAR
0.00010452
Loading maneuver chart data...
Computing Atmospheric mass density...

Documentation

Showing up to 5 results
|